User: anonymous   Login
Location: Unspecified
(0.0000°N, 0.0000°E)
Time: 11:38:25
(UTC+00:00)
Language:

ISS - Orbit

View from above orbital plane
View from above orbital plane
View from above satellite
View from above satellite

Ground track
Ground track

The orbit data is extracted from the following two-line orbital elements,

1 25544U 98067A   16182.98592762  .00003102  00000-0  52955-4 0  9992
2 25544  51.6443 349.1928 0000893  24.3058 119.2707 15.54714746  7135
Epoch (UTC): 30 June 2016 23:39:44
Eccentricity: 0.0000893
inclination: 51.6443°
perigee height: 402 km
apogee height: 403 km
right ascension of ascending node: 349.1928°
argument of perigee: 24.3058°
revolutions per day: 15.54714746
mean anomaly at epoch: 119.2707°
orbit number at epoch: 713

The dashed part of the orbit path shows where the satellite is in the earth's shadow,  

DLR